• Em Portugal
  • Lista de países
  • Para 7 dias
  • Temperatura da água
  • Mapas de satélite
  • Mapa do tempo
  • Widgets de tempo
  • user-avatar
    Iniciar Sessão

    Previsão horária em Grzedy

    Hoje, 22 Abril, Domingo

    Tempo Temperatura Precipitação Vento Pressão Humidade
    00:00 +11°C° 0 mm 1 m/s 719 mmHg 82%
    01:00 +10°C° 0 mm 1 m/s 718 mmHg 80%
    02:00 +10°C° 0 mm 1 m/s 718 mmHg 79%
    03:00 +10°C° 0 mm 1 m/s 718 mmHg 79%
    04:00 +9°C° 0 mm 1 m/s 718 mmHg 79%
    05:00 +10°C° 0 mm 1 m/s 718 mmHg 75%
    06:00 +11°C° 0 mm 1 m/s 718 mmHg 71%
    07:00 +13°C° 0 mm 1 m/s 718 mmHg 68%
    08:00 +14°C° 0 mm 1 m/s 719 mmHg 62%
    09:00 +16°C° 0 mm 1 m/s 719 mmHg 57%
    10:00 +19°C° 0 mm 1 m/s 719 mmHg 51%
    11:00 +20°C° 0 mm 1 m/s 719 mmHg 48%
    12:00 +21°C° 0 mm 1 m/s 718 mmHg 45%
    13:00 +22°C° 0 mm 1 m/s 718 mmHg 42%
    14:00 +22°C° 0 mm 1 m/s 718 mmHg 43%
    15:00 +22°C° 0 mm 1 m/s 718 mmHg 43%
    16:00 +21°C° 0 mm 2 m/s 717 mmHg 44%
    17:00 +20°C° 0 mm 1 m/s 717 mmHg 51%
    18:00 +18°C° 0 mm 1 m/s 716 mmHg 58%
    19:00 +15°C° 0 mm 1 m/s 716 mmHg 66%
    20:00 +14°C° 0 mm 1 m/s 716 mmHg 67%
    21:00 +14°C° 0 mm 2 m/s 716 mmHg 69%
    22:00 +13°C° 0 mm 2 m/s 716 mmHg 70%
    23:00 +13°C° 0,1 mm 2 m/s 716 mmHg 72%

    Amanhã, 23 Abril, Segunda-feira

    Tempo Temperatura Precipitação Vento Pressão Humidade
    00:00 +13°C° 0,1 mm 2 m/s 716 mmHg 73%
    01:00 +13°C° 0,1 mm 2 m/s 715 mmHg 75%
    02:00 +13°C° 0,3 mm 2 m/s 715 mmHg 78%
    03:00 +12°C° 0,3 mm 2 m/s 715 mmHg 81%
    04:00 +12°C° 0,3 mm 2 m/s 715 mmHg 84%
    05:00 +13°C° 0,1 mm 2 m/s 715 mmHg 82%
    06:00 +13°C° 0,1 mm 3 m/s 715 mmHg 80%
    07:00 +14°C° 0,1 mm 3 m/s 715 mmHg 78%
    08:00 +17°C° 0 mm 4 m/s 715 mmHg 72%
    09:00 +19°C° 0 mm 4 m/s 715 mmHg 66%
    10:00 +20°C° 0 mm 5 m/s 715 mmHg 60%
    11:00 +21°C° 0,1 mm 6 m/s 715 mmHg 57%
    12:00 +21°C° 0,1 mm 6 m/s 715 mmHg 55%
    13:00 +22°C° 0,1 mm 6 m/s 715 mmHg 53%
    14:00 +21°C° 0,2 mm 6 m/s 715 mmHg 57%
    15:00 +20°C° 0,2 mm 5 m/s 715 mmHg 61%
    16:00 +19°C° 0,2 mm 5 m/s 715 mmHg 65%
    17:00 +18°C° 0,2 mm 4 m/s 715 mmHg 71%
    18:00 +15°C° 0,2 mm 4 m/s 715 mmHg 77%
    19:00 +14°C° 0,2 mm 3 m/s 715 mmHg 82%
    20:00 +13°C° 0 mm 3 m/s 716 mmHg 84%
    21:00 +12°C° 0 mm 3 m/s 716 mmHg 86%
    22:00 +12°C° 0 mm 2 m/s 716 mmHg 87%
    23:00 +10°C° 0 mm 2 m/s 716 mmHg 87%

    Depois de amanhã, 24 Abril, Terça-feira

    Tempo Temperatura Precipitação Vento Pressão Humidade
    00:00 +9°C° 0 mm 2 m/s 717 mmHg 88%
    01:00 +9°C° 0 mm 2 m/s 717 mmHg 88%
    02:00 +8°C° 0 mm 2 m/s 717 mmHg 88%
    03:00 +8°C° 0 mm 2 m/s 717 mmHg 88%
    04:00 +7°C° 0 mm 2 m/s 717 mmHg 88%
    05:00 +8°C° 0 mm 2 m/s 718 mmHg 84%
    06:00 +9°C° 0 mm 2 m/s 718 mmHg 80%
    07:00 +10°C° 0 mm 3 m/s 718 mmHg 76%
    08:00 +12°C° 0 mm 3 m/s 718 mmHg 70%
    09:00 +13°C° 0 mm 3 m/s 719 mmHg 64%
    10:00 +14°C° 0 mm 4 m/s 719 mmHg 58%
    11:00 +15°C° 0 mm 4 m/s 719 mmHg 55%
    12:00 +17°C° 0 mm 4 m/s 718 mmHg 52%
    13:00 +18°C° 0 mm 4 m/s 718 mmHg 50%
    14:00 +18°C° 0 mm 4 m/s 718 mmHg 49%
    15:00 +18°C° 0 mm 4 m/s 717 mmHg 49%
    16:00 +19°C° 0 mm 4 m/s 717 mmHg 49%
    17:00 +17°C° 0 mm 3 m/s 717 mmHg 55%
    18:00 +15°C° 0 mm 2 m/s 716 mmHg 62%
    19:00 +14°C° 0 mm 2 m/s 716 mmHg 68%
    20:00 +13°C° 0 mm 2 m/s 716 mmHg 71%
    21:00 +12°C° 0 mm 2 m/s 716 mmHg 73%
    22:00 +10°C° 0 mm 2 m/s 716 mmHg 75%
    23:00 +10°C° 0 mm 2 m/s 716 mmHg 76%

    25 Abril, Quarta-feira

    Tempo Temperatura Precipitação Vento Pressão Humidade
    00:00 +10°C° 0 mm 2 m/s 716 mmHg 77%
    01:00 +9°C° 0 mm 2 m/s 716 mmHg 78%
    02:00 +9°C° 0 mm 2 m/s 716 mmHg 79%
    03:00 +9°C° 0 mm 2 m/s 715 mmHg 81%
    04:00 +8°C° 0 mm 2 m/s 715 mmHg 82%
    05:00 +9°C° 0 mm 2 m/s 715 mmHg 79%
    06:00 +12°C° 0 mm 2 m/s 715 mmHg 75%
    07:00 +12°C° 0 mm 3 m/s 715 mmHg 71%
    08:00 +14°C° 0 mm 4 m/s 715 mmHg 65%
    09:00 +16°C° 0 mm 5 m/s 715 mmHg 59%
    10:00 +19°C° 0 mm 6 m/s 715 mmHg 54%
    11:00 +20°C° 0 mm 7 m/s 714 mmHg 52%
    12:00 +20°C° 0 mm 7 m/s 714 mmHg 50%
    13:00 +21°C° 0 mm 7 m/s 714 mmHg 48%
    14:00 +21°C° 0 mm 7 m/s 713 mmHg 49%
    15:00 +21°C° 0 mm 6 m/s 713 mmHg 50%
    16:00 +21°C° 0 mm 6 m/s 712 mmHg 51%
    17:00 +19°C° 0,2 mm 5 m/s 712 mmHg 59%
    18:00 +16°C° 0,2 mm 5 m/s 712 mmHg 66%
    19:00 +15°C° 0,2 mm 4 m/s 712 mmHg 74%
    20:00 +13°C° 0 mm 4 m/s 712 mmHg 78%
    21:00 +12°C° 0 mm 3 m/s 712 mmHg 82%
    22:00 +11°C° 0 mm 3 m/s 713 mmHg 87%
    23:00 +10°C° 0 mm 3 m/s 713 mmHg 88%

    26 Abril, Quinta-feira

    Tempo Temperatura Precipitação Vento Pressão Humidade
    00:00 +10°C° 0 mm 3 m/s 714 mmHg 90%
    01:00 +9°C° 0 mm 3 m/s 714 mmHg 92%
    02:00 +9°C° 0 mm 2 m/s 714 mmHg 93%
    03:00 +8°C° 0 mm 2 m/s 714 mmHg 94%
    04:00 +7°C° 0 mm 2 m/s 715 mmHg 95%
    05:00 +8°C° 0 mm 2 m/s 715 mmHg 90%
    06:00 +9°C° 0 mm 2 m/s 715 mmHg 84%
    07:00 +10°C° 0 mm 2 m/s 715 mmHg 79%
    08:00 +11°C° 0,1 mm 3 m/s 715 mmHg 73%
    09:00 +13°C° 0,1 mm 3 m/s 715 mmHg 66%
    10:00 +14°C° 0,1 mm 4 m/s 716 mmHg 60%
    11:00 +14°C° 0,1 mm 4 m/s 715 mmHg 57%
    12:00 +15°C° 0,1 mm 4 m/s 715 mmHg 54%
    13:00 +15°C° 0,1 mm 5 m/s 715 mmHg 51%
    14:00 +15°C° 0 mm 5 m/s 715 mmHg 52%
    15:00 +15°C° 0 mm 5 m/s 715 mmHg 53%
    16:00 +14°C° 0 mm 5 m/s 715 mmHg 53%
    17:00 +13°C° 0 mm 4 m/s 715 mmHg 58%
    18:00 +11°C° 0 mm 4 m/s 715 mmHg 63%
    19:00 +10°C° 0 mm 3 m/s 715 mmHg 67%
    20:00 +9°C° 0 mm 3 m/s 715 mmHg 69%
    21:00 +8°C° 0 mm 3 m/s 716 mmHg 71%
    22:00 +7°C° 0 mm 2 m/s 716 mmHg 73%
    23:00 +7°C° 0 mm 2 m/s 716 mmHg 74%

    27 Abril, Sexta-feira

    Tempo Temperatura Precipitação Vento Pressão Humidade
    00:00 +6°C° 0 mm 2 m/s 716 mmHg 75%
    01:00 +5°C° 0 mm 2 m/s 716 mmHg 76%
    02:00 +5°C° 0 mm 2 m/s 716 mmHg 78%
    03:00 +4°C° 0 mm 2 m/s 716 mmHg 80%
    04:00 +4°C° 0 mm 2 m/s 716 mmHg 82%
    05:00 +5°C° 0 mm 2 m/s 716 mmHg 78%
    06:00 +6°C° 0 mm 2 m/s 717 mmHg 73%
    07:00 +8°C° 0 mm 1 m/s 717 mmHg 69%
    08:00 +8°C° 0 mm 2 m/s 717 mmHg 63%
    09:00 +10°C° 0 mm 2 m/s 717 mmHg 58%
    10:00 +12°C° 0 mm 2 m/s 717 mmHg 52%
    11:00 +12°C° 0,2 mm 2 m/s 717 mmHg 51%
    12:00 +12°C° 0,2 mm 3 m/s 717 mmHg 49%
    13:00 +12°C° 0,2 mm 3 m/s 716 mmHg 48%
    14:00 +12°C° 0,2 mm 3 m/s 716 mmHg 49%
    15:00 +13°C° 0,2 mm 2 m/s 716 mmHg 50%
    16:00 +13°C° 0,2 mm 2 m/s 716 mmHg 52%
    17:00 +12°C° 0,1 mm 2 m/s 716 mmHg 58%
    18:00 +10°C° 0,1 mm 1 m/s 716 mmHg 64%
    19:00 +9°C° 0,1 mm 1 m/s 715 mmHg 71%
    20:00 +8°C° 0 mm 1 m/s 716 mmHg 73%
    21:00 +8°C° 0 mm 1 m/s 716 mmHg 74%
    22:00 +7°C° 0 mm 1 m/s 716 mmHg 76%
    23:00 +7°C° 0 mm 1 m/s 716 mmHg 77%
    Mostrar mais